Location: East Horndon
(51.5667°N, 0.3500°E)
Time: 05:53:43
(UTC+00:00)

COSMOS 2455 - Pass Details

Date: 08 November 2025
Orbit: 898 x 910 km, 67.1° (Epoch: 11 December)

Event Time Altitude Azimuth Distance (km) Brightness Sun altitude
Exits shadow 05:28:14 21° 293° (WNW) 1,922 4.0 -15.1°
Maximum altitude 05:30:49 28° 331° (NNW) 1,629 3.9 -14.7°
Drops below altitude 10° 05:36:00 10° 30° (NNE) 2,608 5.5 -13.9°
Sets 05:38:55 0° 42° (NE) 3,552 6.4 -13.5°
